Regional Weather Roundup
Issued by NWS Pendleton, OR

Home | Current Version | Previous Version | Text Only | Print | Product List | Glossary On
Versions: 1 2 3 4 5 6 7 8 9 10 11 12 13 14 15 16 17 18 19 20 21 22 23 24 25 26 27 28 29 30 31 32 33 34 35 36 37 38 39 40 41 42 43 44 45 46 47 48 49 50
117
ASUS46 KPDT 030525
RWRPDT
PENDLETON REGIONAL WEATHER ROUNDUP
NATIONAL WEATHER SERVICE PENDLETON OREGON
900 PM PST FRI DEC 2 2016

NOTE: FAIR INDICATES FEW OR NO CLOUDS BELOW 12,000 FEET WITH NO
SIGNIFICANT WEATHER AND/OR OBSTRUCTIONS TO VISIBILITY.

# INDICATES UNOFFICIAL STATION AND DATA

WAZ520-030610-
EAST SLOPES OF WASHINGTON CASCADES

CITY            SKY/WX      TMP DP  RH  WIND    PRES   REMARKS
#CLE ELUM HS    N/A         41  38  89  N2      29.99R
#CLE ELUM LAKE  N/A         39  37  92  CALM    30.09R
#GLENWOOD       N/A         42  37  82  E6      30.14R
#MANASTASH CYN  N/A         32  28  85  CALM    30.00R
#NELSON 3SW     N/A         37  35  92  NW1     30.31R
#NILE           N/A         29  28  96  CALM    29.36R
#RONALD 2NW     N/A         39  N/A N/A NW2     30.01R
#TEANAWAY 4NE   N/A         34  34  100 NE1     N/A
#TROUT LAKE 1NE N/A         39  36  89  NW6     30.20F
#TROUT LAKE 1E  N/A         39  37  92  CALM    30.10S
$$

WAZ521-030610-
SIMCOE HIGHLANDS

CITY            SKY/WX      TMP DP  RH  WIND    PRES   REMARKS
#CENTERVILLE 1SWN/A         40  37  89  W7      30.10F
#GOLDENDALE 1NE N/A         42  35  76  SW6     N/A
#GOLDENDALE 4W  N/A         41  27  57  CALM    30.12F
#GOODNOE HILLS  N/A         41  37  86  NW9     30.00F
#LYLE 6NE       N/A         44  41  89  S12     30.12S WCI 38
$$

WAZ026-030610-
KITTITAS VALLEY

CITY            SKY/WX      TMP DP  RH  WIND    PRES   REMARKS
ELLENSBURG AP   PTCLDY      32  28  85  CALM    30.04R
#ELLENSBURG CWU N/A         30  28  92  CALM    30.05R
#ELLENSBURG 3NE N/A         31  29  92  CALM    30.04S
#ELLENSBURG 1E  N/A         29  N/A N/A CALM    N/A
#KITTITAS 4N    N/A         34  30  85  CALM    30.08R
#KITTITAS 3S    N/A         24  22  92  CALM    30.11R
#THORP 6N       N/A         41  37  86  NW15G29 30.11S WCI 33
$$

WAZ027-030610-
YAKIMA VALLEY

CITY            SKY/WX      TMP DP  RH  WIND    PRES   REMARKS
SUNNYSIDE AP    PTCLDY      40  35  82  E10     30.06F
YAKIMA AIRPORT  PTCLDY      31  28  88  W8      30.06F
YAKIMA-VAGABOND CLEAR       31  27  85  CALM    30.04R
#DONALD 2NE     N/A         39  23  52  N10     28.90
#GRANDVIEW      N/A         44  35  70  S1      30.11S
#MABTON         N/A         47  39  74  S12     30.05S WCI 42
#NACHES 2SW     N/A         31  29  92  CALM    30.06S
#TERRACE HTS    N/A         31  29  92  CALM    30.08S
#TOPPENISH      N/A         41  36  82  CALM    29.99F
#WEST VALLEY    N/A         31  29  92  CALM    30.09S
#W YAKIMA       N/A         34  30  85  W2      30.11R
#WHITE SWAN 5E  N/A         32  30  92  CALM    30.11R
#WILEY CITY 3W  N/A         31  26  81  CALM    30.03R
$$

WAZ028-030610-
LOWER COLUMBIA BASIN...WASHINGTON

CITY            SKY/WX      TMP DP  RH  WIND    PRES   REMARKS
PASCO           CLOUDY      47  36  65  SW12    30.10F WCI 42
PROSSER AWOS    N/A         45  37  73  S17G29  30.10S WCI 38
RICHLAND AWOS   CLOUDY      49  39  68  SW22G30 30.08F WCI 42
#BENTON CITY    N/A         44  38  79  NW3     29.98F
#CONNELL 5N     N/A         43  35  73  SW7     30.10F
#CONNELL 5NW    N/A         43  36  76  S14     30.06F WCI 36
#ELTOPIA 6NW    N/A         45  39  79  SW13G26 29.03F WCI 39
#KAHLOTUS       N/A         44  34  68  W25G33  30.10F WCI 35
#KENNEWICK 3S   N/A         45  37  73  N13G26  30.07F WCI 39
#PATERSON       N/A         46  39  76  NW8     30.13S
#SAGEMOOR 2W    N/A         46  37  71  S17G25  29.93F WCI 39
#TOUCHET 2S     N/A         52  36  54  S10G31  30.06F
#WEST PASCO     N/A         48  37  65  SW6     30.11S
$$

WAZ029-030610-
FOOTHILLS OF THE BLUES...WASHINGTON

CITY            SKY/WX      TMP DP  RH  WIND    PRES   REMARKS
WALLA WALLA AP  CLOUDY      48  34  58  S21     30.10S WCI 41
#CLYDE 6NW      N/A         45  35  68  SW5     30.11F
#DAYTON SCHOOL  N/A         48  30  49  S15G26  30.09S WCI 42
#LOWDEN 2SE     N/A         51  38  61  S7      30.08S
#PLEASANT VIEW 1N/A         43  35  73  S17G24  30.13F WCI 35
#PRESCOTT       N/A         48  38  68  S1      30.11S
#WHITMAN COLLEGEN/A         49  37  63  S6      30.17F
#WAITSBURG 5S   N/A         46  36  68  S17G25  30.22F WCI 39
#WAITSBURG 8N   N/A         44  N/A N/A S17G25  30.08F WCI 36
#WALLA WALLA U  N/A         50  37  61  S3      30.13F
#WHITMAN MISSIONN/A         50  38  63  S2      30.15R
$$

WAZ030-030610-
BLUE MOUNTAINS...WASHINGTON

CITY            SKY/WX      TMP DP  RH  WIND    PRES   REMARKS
#DIXIE 5SE      N/A         39  31  73  S15     30.00S WCI 31
#SKI BLUEWOOD   N/A         32  30  92  S3      30.04F
$$

ORZ009-041-WAZ024-030610-
COLUMBIA RIVER GORGE

CITY            SKY/WX      TMP DP  RH  WIND    PRES   REMARKS
HOOD RIVER AP   CLOUDY      46  43  89  NW17    30.16F WCI 39
THE DALLES AP   MOCLDY      42  39  89  CALM    30.14S
#ARLINGTON AIRPON/A         43  39  86  CALM    30.16S
#ARLINGTON HS   N/A         46  38  73  CALM    30.06S
#CELILO DOT     N/A         45  37  73  S3      N/A
#LYLE           N/A         49  44  83  W13G24  30.16S WCI 44
#MOSIER 1S      N/A         45  38  76  NW13    N/A    WCI 39
#MURDOCK        N/A         49  44  83  W12     30.11F WCI 44
#RUFUS DOT      N/A         46  40  79  NW1     N/A
#SMITHVILLE     N/A         45  41  86  N2      30.11R

$$

ORZ510-030610-
NORTH CENTRAL OREGON

CITY            SKY/WX      TMP DP  RH  WIND    PRES   REMARKS
#ANTELOPE       N/A         38  32  79  W6      30.12F
#CHENOWITH 1W   N/A         40  40  100 W20     N/A    WCI 30
#COW CYN RST AREN/A         39  N/A N/A SW7     N/A
#DUFUR 9E       N/A         38  35  89  NE3     30.21S
#GRASS VALLEY 1SN/A         41  35  79  SW14    30.04S WCI 33
#KENT DOT       N/A         40  26  57  N16     N/A    WCI 32
#MAUPIN SCHOOL  N/A         47  38  71  SW2     30.17F
#MORO SCHOOL    N/A         41  37  86  N1      30.10R
#SHANIKO 5WSW   N/A         38  24  57  N21     N/A    WCI 28
#SHANIKO 4NW    N/A         37  30  75  SW6     30.11S
#WAPANITIA AIRPON/A         44  37  76  W6      30.19F
#WASCO DOT      N/A         41  37  86  S6      N/A
#WASCO 5NE      N/A         40  37  89  SW1     30.16S
$$

ORZ511-030610-
CENTRAL OREGON

CITY            SKY/WX      TMP DP  RH  WIND    PRES   REMARKS
BEND AIRPORT    MOCLDY      39  32  76  SW14    30.17S WCI 31
MADRAS AIRPORT  CLOUDY      37  30  75  S7      30.17F
PRINEVILLE AP   CLOUDY      36  30  79  CALM    30.18F
REDMOND AIRPORT CLOUDY      38  29  70  CALM    30.18S
#ASHWOOD SCHOOL N/A         44  32  62  S3      30.11S
#BEND 1SW       N/A         36  33  89  SW5     N/A
#BEND-AWBREY    N/A         38  34  85  SW6     30.25F
#BEND-KIM LN    N/A         31  28  88  SW1     30.09F
#CULVER         N/A         42  33  70  S9      30.16F
#CULVER 8W      N/A         43  32  65  S3      30.14F
#LAKE BILLY CHINN/A         44  N/A N/A SE12    30.20F WCI 38
#MADRAS 4S      N/A         N/A N/A N/A N2      30.21F
#POWELL BUTTE 3EN/A         36  28  72  E2      N/A
#POWELL BUTTE   N/A         42  33  70  SW8     30.10F
#PRINEVILLE 3N  N/A         34  30  85  CALM    30.26F

$$


ORZ509-030610-
EAST SLOPES OF OREGON CASCADES

CITY            SKY/WX      TMP DP  RH  WIND    PRES   REMARKS
SISTERS AWOS    N/A         34  28  78  CALM    30.12F
#BLUE BOX PASS  N/A         35  N/A N/A NW2     N/A
#CAMP SHERMAN   N/A         40  33  76  NE5     30.32F
#LA PINE 4NW    N/A         32  27  82  CALM    30.42F
#LAVA BUTTE DOT N/A         34  26  72  S2      N/A
#SISTERS AIRPOR N/A         32  32  100 N1      30.17S
#SISTERS ODOT   N/A         34  N/A N/A CALM    N/A
#SISTERS 3N     N/A         36  28  72  NW3     30.11F
#SUNRIVER       N/A         35  31  85  S3      30.38F
#SUTTLE LK DOT  N/A         N/A N/A N/A CALM    N/A
#TUMALO 3W      N/A         33  27  78  NE1     30.13F
#WANOGA BUTTE D N/A         31  31  100 W10     N/A

$$

ORZ044-030610-
LOWER COLUMBIA BASIN...OREGON

CITY            SKY/WX      TMP DP  RH  WIND    PRES   REMARKS
HERMISTON       CLOUDY      45  35  68  S5      30.13S
#BOARDMAN SCHOOLN/A         47  39  74  SW3     30.14R
#I-84 EX 198 DOTN/A         47  34  60  N5      N/A
#UMATILLA       N/A         46  36  68  S3      30.08S
$$

ORZ507-030610-
NORTHERN FOOTHILLS OF THE BLUES

CITY            SKY/WX      TMP DP  RH  WIND    PRES   REMARKS
PENDLETON AIRPT CLOUDY      47  32  56  SW14    30.12S WCI 41
#ADAMS 3WNW     N/A         44  37  76  CALM    30.19R
#ATHENA         N/A         43  37  79  E3      30.20R
#CAYUSE         N/A         46  38  73  SE9     30.15S
#HELIX SCHOOL   N/A         45  36  70  N10     30.18S
#HELIX 3N       N/A         44  35  70  S20G26  30.08S WCI 36
#HOLDMAN 5SE    N/A         45  36  70  SW2     30.12R
#HOLDMAN 6E     N/A         43  36  76  SE10    29.97S
#M-F FERNDALE   N/A         49  35  58  CALM    30.09S
#M-F GROVE ELEM N/A         48  33  56  SE3     30.09R
#M-FREEWATER 5SEN/A         46  36  68  E12     30.12S WCI 40
#PENDLETON DNTN N/A         50  29  44  W9      30.13F
#PDT AQUATIC CTRN/A         48  31  51  S7      30.13S
#PDT SUNRIDGE   N/A         48  35  60  S6      30.14S
#PENDLETON 7NW  N/A         47  35  63  S3      31.56S
#PILOT ROCK 1S  N/A         46  29  51  SE13    30.13S WCI 40
#PILOT ROCK     N/A         46  34  63  SW10    30.13F
#TUTUILLA       N/A         47  36  65  CALM    30.16S
#UMAPINE 2E     N/A         50  38  63  S7      30.08F
#WESTON SCHOOL  N/A         41  33  73  S8      29.99S

$$

ORZ508-030610-
SOUTHERN FOOTHILLS OF THE BLUES

CITY            SKY/WX      TMP DP  RH  WIND    PRES   REMARKS
LEXINGTON       CLOUDY      48  32  54  SE8     30.15S
#AJAX           N/A         45  28  51  S16G24  27.85S WCI 38
#CONDON SCHOOL  N/A         43  34  70  SW15    30.04S WCI 36
#CONDON 5W      N/A         40  30  67  SW16G29 30.07R WCI 32
#HEPPNER EOC    N/A         46  33  60  SE5     30.10F
#HEPPNER 4NE    N/A         43  33  67  CALM    30.17F
#LEXINGTON 2SE  N/A         49  34  56  SE7     30.08F
#MIKKALO        N/A         44  33  65  NW6     30.20S
#OLEX 4N        N/A         42  37  82  CALM    30.11S
#RUGGS 5NE      N/A         42  31  65  S8      30.27S
#RUGGS 2SW      N/A         42  32  67  SW13    30.18F WCI 35

$$

ORZ502-503-030610-
BLUE MOUNTAINS

CITY            SKY/WX      TMP DP  RH  WIND    PRES   REMARKS
MEACHAM         LGT SNOW    33  31  92  CALM    30.13S FOG
#BATTLE MTN DOT N/A         31  29  92  S9      N/A
#HEPPNER 15SE   N/A         35  31  85  N2      30.10R
#LADD CYN SMT   N/A         30  27  88  SE20    N/A    WCI 17
#LADD CREEK ODOTN/A         32  26  78  SW8     N/A
#LONG CREEK HS  N/A         37  35  92  S9      30.16S
#N POWDER DOT   N/A         32  26  78  SE13    N/A    WCI 22
#PIKES PEAK     N/A         38  31  76  SW28G38 27.99S WCI 26
#TOLLGATE       N/A         28  27  96  CALM    29.93S
#TROY SCHOOL    N/A         36  32  85  CALM    30.10S
#UKIAH          N/A         36  32  85  CALM    30.18S
#WESTON 4E      N/A         34  32  92  SE10    30.17F
$$

ORZ505-030610-
JOHN DAY BASIN

CITY            SKY/WX      TMP DP  RH  WIND    PRES   REMARKS
JOHN DAY        CLOUDY      38  29  70  S16G24  30.20S WCI 29
#ANTELOPE 9ESE  N/A         40  33  76  CALM    N/A
#DAYVILLE SCHOOLN/A         42  30  62  E6      30.16S
#MITCHELL       N/A         40  34  79  CALM    30.31F
#MITCHELL 8NW   N/A         41  30  65  SW5     30.41F
#MONUMENT HS    N/A         40  31  70  NE1     30.16F
#MT. VERNON 5SE N/A         33  28  82  E7      30.13F
#SPRAY SCHOOL   N/A         42  N/A N/A CALM    N/A
$$

ORZ506-030610-
OCHOCO AND JOHN DAY HIGHLANDS

CITY            SKY/WX      TMP DP  RH  WIND    PRES   REMARKS
#BUCK CREEK DOT N/A         38  28  67  S5      N/A
#HORSE RIDGE DO N/A         29  25  85  CALM    N/A
#KEYES SMT DOT  N/A         36  29  75  SW28G38 N/A    WCI 23
#PAULINA SCHOOL N/A         35  28  75  NE1     N/A
#PINE MTN OBS   N/A         34  31  89  W8      N/A
#PRAIRIE CITY   N/A         32  28  85  CALM    30.37S
#SENECA         N/A         30  N/A N/A W5      N/A
#SENECA 9NW     N/A         29  27  92  CALM    30.34S
$$

ORZ049-030610-
GRANDE RONDE VALLEY

CITY            SKY/WX      TMP DP  RH  WIND    PRES   REMARKS
LA GRANDE       CLOUDY      36  23  59  S12     30.19S WCI 28
#COVE           N/A         38  31  76  S2      30.19S
#COVE SCHOOL    N/A         38  29  70  CALM    30.17S
#COVE 6NW       N/A         35  29  78  S5      30.29F
#ELGIN 3N       N/A         33  28  82  S15     30.12F WCI 23
#ELGIN 1E       N/A         35  29  78  S3      N/A
#IMBLER SCHOOL  N/A         34  29  82  S8      30.11F
#ISLAND CITY 4N N/A         43  42  96  CALM    30.27R
#LADD CYN DOT   N/A         34  29  82  S30     N/A    WCI 20
#UNION 1S       N/A         35  29  78  S7      30.32R
$$

ORZ050-030610-
WALLOWA COUNTY

CITY            SKY/WX      TMP DP  RH  WIND    PRES   REMARKS
JOSEPH AIRPORT  CLOUDY      30  25  81  CALM    30.12F
#IMNAHA SCHOOL  N/A         42  26  53  N15G26  30.17S WCI 34
#IMNAHA 10S     N/A         38  24  57  SW8     30.14F
#JOSEPH 3N      N/A         29  21  72  CALM    30.12F
#JOSEPH 3W      N/A         27  19  71  CALM    29.93S
#LOSTINE        N/A         30  26  85  CALM    30.07F
#LOSTINE 3SE    N/A         31  26  81  CALM    30.11F
#MT HOWARD 8000 N/A         26  22  85  W9      30.01R
#PROMISE 1S     N/A         30  28  92  CALM    30.36F
#WALLOWA SCHOOL N/A         31  28  88  CALM    30.12S



$$



USA.gov is the U.S. government's official web portal to all federal, state and local government web resources and services.